TimeCDT,TemperatureF,Dew PointF,Humidity,Sea Level PressureIn,VisibilityMPH,Wind Direction,Wind SpeedMPH,Gust SpeedMPH,PrecipitationIn,Events,Conditions,WindDirDegrees,DateUTC
12:15 AM,64.0,57.4,79,30.14,10.0,SE,3.5,-,N/A,,Clear,140,2013-08-18 05:15:00
12:35 AM,63.5,57.0,79,30.14,10.0,SE,3.5,-,N/A,,Clear,140,2013-08-18 05:35:00
12:55 AM,62.6,57.2,82,30.15,10.0,Calm,Calm,-,N/A,,Clear,0,2013-08-18 05:55:00
1:15 AM,61.9,56.7,83,30.15,10.0,SSE,3.5,-,N/A,,Clear,150,2013-08-18 06:15:00
1:35 AM,60.8,56.3,85,30.14,10.0,SSE,4.6,-,N/A,,Clear,150,2013-08-18 06:35:00
1:55 AM,61.9,56.7,83,30.14,10.0,SSE,3.5,-,N/A,,Clear,150,2013-08-18 06:55:00
2:15 AM,63.5,56.7,78,30.14,10.0,ESE,3.5,-,N/A,,Clear,120,2013-08-18 07:15:00
2:35 AM,61.9,56.7,83,30.14,10.0,Calm,Calm,-,N/A,,Clear,0,2013-08-18 07:35:00
2:55 AM,61.7,56.8,84,30.14,10.0,Calm,Calm,-,N/A,,Clear,0,2013-08-18 07:55:00
3:15 AM,59.4,56.5,90,30.14,10.0,Calm,Calm,-,N/A,,Clear,0,2013-08-18 08:15:00
3:35 AM,58.3,54.9,88,30.14,10.0,Calm,Calm,-,N/A,,Clear,0,2013-08-18 08:35:00
3:55 AM,57.2,56.1,96,30.14,10.0,Calm,Calm,-,N/A,,Clear,0,2013-08-18 08:55:00
4:15 AM,58.1,56.5,94,30.13,10.0,Calm,Calm,-,N/A,,Clear,0,2013-08-18 09:15:00
4:35 AM,55.2,54.3,97,30.14,10.0,Calm,Calm,-,N/A,,Clear,0,2013-08-18 09:35:00
4:55 AM,55.2,54.5,97,30.14,10.0,Calm,Calm,-,N/A,,Clear,0,2013-08-18 09:55:00
5:15 AM,55.4,54.9,98,30.14,10.0,Calm,Calm,-,N/A,,Clear,0,2013-08-18 10:15:00
5:35 AM,56.1,55.6,98,30.14,10.0,Calm,Calm,-,N/A,,Clear,0,2013-08-18 10:35:00
5:55 AM,56.7,56.1,98,30.14,10.0,Calm,Calm,-,N/A,,Clear,0,2013-08-18 10:55:00
6:15 AM,56.7,55.9,97,30.14,10.0,Calm,Calm,-,N/A,,Clear,0,2013-08-18 11:15:00
6:35 AM,56.3,56.3,100,30.15,10.0,Calm,Calm,-,N/A,,Clear,0,2013-08-18 11:35:00
6:55 AM,56.8,56.3,98,30.15,10.0,Calm,Calm,-,N/A,,Clear,0,2013-08-18 11:55:00
7:15 AM,57.2,56.3,97,30.15,10.0,Calm,Calm,-,N/A,,Clear,0,2013-08-18 12:15:00
7:35 AM,58.6,57.9,97,30.16,10.0,Calm,Calm,-,N/A,,Clear,0,2013-08-18 12:35:00
7:55 AM,60.3,58.8,95,30.15,10.0,SE,3.5,-,N/A,,Clear,140,2013-08-18 12:55:00
8:15 AM,61.9,59.2,91,30.16,10.0,Calm,Calm,-,N/A,,Clear,0,2013-08-18 13:15:00
8:35 AM,63.5,59.4,86,30.16,10.0,SSE,4.6,-,N/A,,Clear,150,2013-08-18 13:35:00
8:55 AM,65.5,59.9,82,30.16,10.0,SE,4.6,-,N/A,,Clear,140,2013-08-18 13:55:00
9:15 AM,67.1,59.5,77,30.16,10.0,SE,5.8,-,N/A,,Clear,140,2013-08-18 14:15:00
9:35 AM,68.7,60.1,74,30.16,10.0,SE,4.6,-,N/A,,Clear,140,2013-08-18 14:35:00
9:55 AM,70.2,60.1,70,30.16,10.0,South,8.1,-,N/A,,Clear,180,2013-08-18 14:55:00
10:15 AM,71.1,60.4,69,30.16,10.0,SE,6.9,-,N/A,,Clear,140,2013-08-18 15:15:00
10:35 AM,72.1,60.8,67,30.16,10.0,SSE,8.1,-,N/A,,Clear,150,2013-08-18 15:35:00
10:55 AM,73.0,60.4,65,30.16,10.0,SSE,9.2,-,N/A,,Clear,160,2013-08-18 15:55:00
11:15 AM,73.8,59.9,62,30.15,10.0,SSE,9.2,-,N/A,,Clear,160,2013-08-18 16:15:00
11:35 AM,74.7,60.1,60,30.15,10.0,SSE,13.8,19.6,N/A,,Clear,150,2013-08-18 16:35:00
11:55 AM,75.4,60.4,60,30.15,10.0,South,10.4,16.1,N/A,,Clear,170,2013-08-18 16:55:00
12:15 PM,75.4,59.2,57,30.14,10.0,South,11.5,-,N/A,,Clear,170,2013-08-18 17:15:00
12:35 PM,75.9,60.3,58,30.13,10.0,SSE,11.5,16.1,N/A,,Clear,160,2013-08-18 17:35:00
12:55 PM,76.1,59.5,56,30.13,10.0,South,9.2,-,N/A,,Clear,170,2013-08-18 17:55:00
1:15 PM,76.8,60.1,56,30.13,10.0,South,13.8,17.3,N/A,,Clear,180,2013-08-18 18:15:00
1:35 PM,77.2,59.9,55,30.12,10.0,South,11.5,20.7,N/A,,Clear,190,2013-08-18 18:35:00
1:55 PM,77.5,61.3,57,30.11,10.0,South,9.2,16.1,N/A,,Clear,170,2013-08-18 18:55:00
2:15 PM,78.1,61.9,57,30.11,10.0,SSE,11.5,16.1,N/A,,Clear,150,2013-08-18 19:15:00
2:35 PM,77.9,60.8,56,30.11,10.0,South,10.4,-,N/A,,Clear,180,2013-08-18 19:35:00
2:55 PM,78.1,61.2,56,30.11,10.0,SSE,9.2,-,N/A,,Clear,150,2013-08-18 19:55:00
3:15 PM,78.6,62.4,57,30.10,10.0,SE,8.1,-,N/A,,Clear,140,2013-08-18 20:15:00
3:35 PM,78.6,61.0,55,30.10,10.0,South,11.5,-,N/A,,Clear,190,2013-08-18 20:35:00
3:55 PM,79.2,62.6,57,30.09,10.0,South,9.2,-,N/A,,Clear,170,2013-08-18 20:55:00
4:15 PM,79.2,62.4,56,30.09,10.0,South,9.2,-,N/A,,Clear,180,2013-08-18 21:15:00
4:35 PM,79.3,61.5,54,30.08,10.0,South,8.1,-,N/A,,Clear,190,2013-08-18 21:35:00
4:55 PM,79.0,61.2,54,30.08,10.0,SSE,9.2,-,N/A,,Clear,160,2013-08-18 21:55:00
5:15 PM,79.0,62.1,56,30.07,10.0,South,9.2,-,N/A,,Clear,170,2013-08-18 22:15:00
5:35 PM,79.3,62.2,56,30.07,10.0,South,9.2,-,N/A,,Clear,170,2013-08-18 22:35:00
5:55 PM,78.8,61.9,56,30.06,10.0,SSE,10.4,-,N/A,,Clear,150,2013-08-18 22:55:00
6:15 PM,78.6,62.4,57,30.06,10.0,SSE,8.1,-,N/A,,Clear,150,2013-08-18 23:15:00
6:35 PM,78.3,62.1,57,30.06,10.0,SSE,6.9,-,N/A,,Clear,160,2013-08-18 23:35:00
6:55 PM,77.9,63.1,60,30.06,10.0,SSE,4.6,-,N/A,,Clear,150,2013-08-18 23:55:00
7:15 PM,77.0,63.5,63,30.05,10.0,SSE,6.9,-,N/A,,Clear,150,2013-08-19 00:15:00
7:35 PM,76.3,63.0,63,30.05,10.0,SSE,6.9,-,N/A,,Clear,150,2013-08-19 00:35:00
7:55 PM,74.8,63.5,68,30.06,10.0,SE,5.8,-,N/A,,Clear,140,2013-08-19 00:55:00
8:15 PM,73.8,63.5,70,30.07,10.0,SSE,4.6,-,N/A,,Clear,160,2013-08-19 01:15:00
8:35 PM,72.5,63.5,73,30.06,10.0,SSE,5.8,-,N/A,,Clear,150,2013-08-19 01:35:00
8:55 PM,71.6,63.5,76,30.07,10.0,SSE,4.6,-,N/A,,Scattered Clouds,150,2013-08-19 01:55:00
9:15 PM,71.8,63.5,75,30.07,10.0,SSE,4.6,-,N/A,,Mostly Cloudy,150,2013-08-19 02:15:00
9:35 PM,70.7,63.3,77,30.07,10.0,SSE,4.6,-,N/A,,Scattered Clouds,150,2013-08-19 02:35:00
9:55 PM,70.2,63.5,79,30.07,10.0,SE,4.6,-,N/A,,Clear,140,2013-08-19 02:55:00
10:15 PM,69.8,63.5,80,30.08,10.0,SSE,5.8,-,N/A,,Scattered Clouds,150,2013-08-19 03:15:00
10:35 PM,69.8,63.5,80,30.09,10.0,SSE,4.6,-,N/A,,Scattered Clouds,150,2013-08-19 03:35:00
10:55 PM,69.6,63.5,81,30.09,10.0,SE,5.8,-,N/A,,Scattered Clouds,140,2013-08-19 03:55:00
11:15 PM,69.8,63.5,80,30.09,10.0,SE,6.9,-,N/A,,Mostly Cloudy,140,2013-08-19 04:15:00
11:35 PM,70.0,63.7,80,30.09,10.0,SSE,5.8,-,N/A,,Mostly Cloudy,150,2013-08-19 04:35:00
11:55 PM,70.7,63.5,78,30.08,10.0,SSE,8.1,-,N/A,,Scattered Clouds,160,2013-08-19 04:55:00